Overview Statistics Trail Chart Weather Telemetry Raw packets
 

This is the latest recevied weather packets stored in our database for station/object K0APR. If no packets are shown the sender has not sent any weather packets the latest 10 day(s).

<< 1 2 3 4 5 6 7 >>
Time Temp. Humidity Pressure Rain* Wind** Luminosity Snow
1788649165 28.89° C 66% 1014.7 hPa 0 mm - 172 W/m² -
1788648860 28.89° C 65% 1014.7 hPa 0 mm - 174 W/m² -
1788648555 28.89° C 65% 1014.7 hPa 0 mm - 183 W/m² -
1788648252 28.89° C 70% 1014.7 hPa 0 mm - 196 W/m² -
1788647951 28.89° C 70% 1014.7 hPa 0 mm - 56 W/m² -
1788647649 28.89° C 69% 1014.7 hPa 0 mm - 51 W/m² -
1788647349 28.89° C 69% 1014.7 hPa 0 mm - 53 W/m² -
1788647048 28.89° C 68% 1014.7 hPa 0 mm - 56 W/m² -
1788646744 28.89° C 68% 1014.7 hPa 0 mm - 57 W/m² -
1788646441 28.89° C 67% 1014.7 hPa 0 mm - 59 W/m² -
1788646136 28.89° C 66% 1014.7 hPa 0 mm - 118 W/m² -
1788645832 29.44° C 64% 1014.7 hPa 0 mm - 296 W/m² -
1788645531 29.44° C 64% 1014.7 hPa 0 mm - 304 W/m² -
1788645227 30° C 65% 1014.4 hPa 0 mm - 173 W/m² -
1788644945 29.44° C 66% 1014.4 hPa 0 mm - 338 W/m² -
1788644619 29.44° C 66% 1014.4 hPa 0 mm - 337 W/m² -
1788644319 29.44° C 66% 1014.4 hPa 0 mm - 60 W/m² -
1788644016 29.44° C 69% 1014.4 hPa 0 mm - 60 W/m² -
1788643716 29.44° C 68% 1014.4 hPa 0 mm - 117 W/m² -
1788643410 29.44° C 67% 1014.4 hPa 0 mm - 65 W/m² -
1788643110 29.44° C 68% 1014.4 hPa 0 mm - 69 W/m² -
1788642806 29.44° C 68% 1014.4 hPa 0 mm - 114 W/m² -
1788642502 29.44° C 67% 1014.4 hPa 0 mm - 393 W/m² -
1788642202 30° C 67% 1014.4 hPa 0 mm - 101 W/m² -
1788641901 29.44° C 68% 1014.4 hPa 0 mm - 478 W/m² -

* Rain latest hour (hover to see other rain measurements)
** Current wind speed in m/s (hover to see current wind gust speed)